ELECTRON DEB

Last updated on Oct. 24, 2019, 12:02 a.m. UTC

1 44639U 19069D   19293.27634399  .00617699  00000-0  14085-1 0  9995
2 44639  87.8939  42.7279 0607391 262.6100  90.4886 14.44727028   325

Satellite is not in orbit.